St. Catharines Fifth St

*Note: All times are displayed in the local standard time of the station location.
**Rain - Equipment is designed to accurately record liquid precipitation; under conditions when precipitation is not in liquid form, the data displayed may not properly reflect rainfall values.

Date Max Temp
(°C)
Min Temp
(°C)
Avg Temp
(°C)
Rain (mm) Avg RH (%)
Sat, Feb 17, 2018 -1.1 -6.6 -3.2 0.0 72.0
Fri, Feb 16, 2018 4.2 -5.9 -0.4 0.0 78.1
Thu, Feb 15, 2018 8.7 2.6 5.9 0.2 94.2
Wed, Feb 14, 2018 5.2 -6.3 2.6 4.6 73.8
Tue, Feb 13, 2018 2.6 -16.6 -8.1 0.6 75.9
Mon, Feb 12, 2018 -1.3 -11.3 -5.0 23.4 69.0
Sun, Feb 11, 2018 0.8 -4.0 -1.8 4.4 89.4
DateTime Avg Temp (°C) Rain (mm) RH (%)
Sun, Feb 18, 2018 04:00 -2.3 0.0 86.0
Sun, Feb 18, 2018 03:00 -2.0 0.0 84.5
Sun, Feb 18, 2018 02:00 -1.8 0.0 85.5
Sun, Feb 18, 2018 01:00 -2.0 0.0 87.0
Sun, Feb 18, 2018 00:00 -1.8 0.0 85.0
Sat, Feb 17, 2018 23:00 -1.6 0.0 80.5
Sat, Feb 17, 2018 22:00 -1.8 0.0 73.0
Sat, Feb 17, 2018 21:00 -2.0 0.0 72.3
Sat, Feb 17, 2018 20:00 -2.2 0.0 71.0
Sat, Feb 17, 2018 19:00 -2.0 0.0 66.0
Sat, Feb 17, 2018 18:00 -1.7 0.0 60.5
Sat, Feb 17, 2018 17:00 -1.5 0.0 57.8
Sat, Feb 17, 2018 16:00 -1.4 0.0 61.3
Sat, Feb 17, 2018 15:00 -1.3 0.0 61.0
Sat, Feb 17, 2018 14:00 -1.3 0.0 62.8
Sat, Feb 17, 2018 13:00 -1.5 0.0 62.5
Sat, Feb 17, 2018 12:00 -1.4 0.0 63.5
Sat, Feb 17, 2018 11:00 -2.0 0.0 65.8
Sat, Feb 17, 2018 10:00 -2.8 0.0 69.5
Sat, Feb 17, 2018 09:00 -4.3 0.0 75.8
Sat, Feb 17, 2018 08:00 -6.2 0.0 81.5
Sat, Feb 17, 2018 07:00 -6.5 0.0 82.5
Sat, Feb 17, 2018 06:00 -5.8 0.0 80.0
Sat, Feb 17, 2018 05:00 -5.5 0.0 80.3
Sat, Feb 17, 2018 04:00 -5.4 0.0 78.8
Sat, Feb 17, 2018 03:00 -5.7 0.0 80.5
Sat, Feb 17, 2018 02:00 -6.0 0.0 77.8
Sat, Feb 17, 2018 01:00 -6.1 0.0 78.0
Sat, Feb 17, 2018 00:00 -5.8 0.0 78.3
Fri, Feb 16, 2018 23:00 -5.5 0.0 74.3
Fri, Feb 16, 2018 22:00 -5.2 0.0 72.5
Fri, Feb 16, 2018 21:00 -4.8 0.0 68.3
Fri, Feb 16, 2018 20:00 -4.1 0.0 63.3
Fri, Feb 16, 2018 19:00 -3.7 0.0 60.3
Fri, Feb 16, 2018 18:00 -2.9 0.0 55.5
Fri, Feb 16, 2018 17:00 -1.2 0.0 58.0
Fri, Feb 16, 2018 16:00 -0.2 0.0 60.3
Fri, Feb 16, 2018 15:00 1.0 0.0 59.0
Fri, Feb 16, 2018 14:00 1.1 0.0 59.5
Fri, Feb 16, 2018 13:00 1.7 0.0 66.0
Fri, Feb 16, 2018 12:00 1.6 0.0 74.0
Fri, Feb 16, 2018 11:00 1.1 0.0 83.8
Fri, Feb 16, 2018 10:00 1.2 0.0 83.5
Fri, Feb 16, 2018 09:00 0.9 0.0 84.8
Fri, Feb 16, 2018 08:00 0.9 0.0 86.8
Fri, Feb 16, 2018 07:00 1.6 0.0 89.3
Fri, Feb 16, 2018 06:00 1.7 0.0 97.5
Fri, Feb 16, 2018 05:00 1.1 0.0 100.0


asterix Register now to access more data! asterix